contact:dominique.lefevre@mio.osupytheas.fr, maurice.libes@osupytheas.fr, didier.mallarino@osupytheas.fr
Project:EMSO http://www.emso-fr.org/EMSO-France
Depth: 2436.0 m
Title:EMSO Ligure Ouest : Data MII capteur AQUADOPP
Date,Latitude,Longitude,X_East,Y_North,Z_Up,Amplitude_X,Amplitude_Y,Amplitude_Z,Batterie,SoundSpeed,Heading,Pitch,Roll,Pressure,TIS,Speed,Direction
, degrees North, degrees East, m.s-1, m.s-1,m.s-1, 1, 1, 1, Volt, m.s-1, degree, degree, degree, dbar, degree_C, m.s-1, degree
2020-02-18T00:04:03,42.805,6.029,0.001,0.015,-0.022,104.0,119.0,101.0,13.4,1505.2,325.2,-0.7,1.9,2470.3,13.3,0.015,3.8
2020-02-18T00:07:03,42.805,6.029,0.007,0.008,-0.058,104.0,119.0,101.0,13.4,1505.3,324.9,-0.7,1.8,2470.307,13.31,0.01,41.2
2020-02-18T00:10:03,42.805,6.029,0.025,0.024,-0.009,104.0,114.0,101.0,13.4,1505.3,323.2,-0.7,1.9,2470.297,13.31,0.034,46.2
2020-02-18T00:13:03,42.805,6.029,0.023,0.028,-0.03,105.0,121.0,101.0,13.3,1505.3,323.2,-0.7,1.8,2470.256,13.32,0.036,39.4
2020-02-18T00:16:03,42.805,6.029,0.0,0.024,-0.053,104.0,118.0,101.0,13.4,1505.3,323.5,-0.7,1.8,2470.279,13.32,0.024,0.0
2020-02-18T00:19:03,42.805,6.029,0.044,0.014,-0.021,104.0,117.0,101.0,13.3,1505.3,323.5,-0.7,1.8,2470.319,13.32,0.046,72.4
2020-02-18T00:22:03,42.805,6.029,0.033,0.021,-0.037,103.0,114.0,101.0,13.3,1505.3,323.2,-0.7,1.9,2470.294,13.32,0.039,57.5
2020-02-18T00:25:03,42.805,6.029,0.011,0.021,-0.043,104.0,120.0,100.0,13.3,1505.3,327.3,-0.7,1.8,2470.315,13.32,0.023,27.6
2020-02-18T00:28:03,42.805,6.029,0.019,-0.001,-0.03,102.0,116.0,100.0,13.4,1505.3,327.9,-0.7,1.8,2470.332,13.32,0.019,93.0
2020-02-18T00:31:03,42.805,6.029,0.01,0.006,-0.022,103.0,116.0,101.0,13.4,1505.3,325.1,-0.7,1.8,2470.304,13.32,0.011,59.0
2020-02-18T00:34:03,42.805,6.029,0.013,0.025,-0.057,103.0,118.0,101.0,13.3,1505.3,324.1,-0.7,1.8,2470.327,13.32,0.028,27.5
2020-02-18T00:37:03,42.805,6.029,0.035,0.017,-0.048,104.0,116.0,101.0,13.4,1505.3,326.7,-0.7,1.8,2470.327,13.32,0.038,64.1
2020-02-18T00:40:03,42.805,6.029,0.03,0.028,-0.037,104.0,118.0,100.0,13.3,1505.3,322.9,-0.7,1.8,2470.309,13.32,0.041,47.0
2020-02-18T00:43:03,42.805,6.029,0.011,0.01,-0.041,103.0,114.0,101.0,13.4,1505.3,324.8,-0.7,1.8,2470.314,13.32,0.014,47.7
2020-02-18T00:46:03,42.805,6.029,0.03,0.021,-0.022,104.0,116.0,100.0,13.4,1505.3,328.2,-0.7,1.8,2470.315,13.32,0.036,55.0
2020-02-18T00:49:03,42.805,6.029,0.016,0.018,-0.015,103.0,116.0,101.0,13.4,1505.3,326.0,-0.7,1.9,2470.306,13.32,0.024,41.6
2020-02-18T00:52:03,42.805,6.029,0.034,0.023,-0.029,103.0,117.0,100.0,13.4,1505.3,324.8,-0.7,1.8,2470.286,13.32,0.041,55.9
2020-02-18T00:55:03,42.805,6.029,0.038,0.007,-0.033,103.0,117.0,101.0,13.3,1505.3,326.8,-0.7,1.8,2470.304,13.32,0.038,79.6
2020-02-18T00:58:03,42.805,6.029,0.053,0.018,-0.029,104.0,114.0,101.0,13.3,1505.3,323.0,-0.7,1.8,2470.319,13.32,0.055,71.2
2020-02-18T01:04:03,42.805,6.029,0.033,0.018,-0.047,105.0,116.0,102.0,13.4,1505.2,327.3,-0.7,1.8,2470.341,13.3,0.037,61.4
2020-02-18T01:07:02,42.805,6.029,0.006,0.012,-0.053,104.0,114.0,101.0,13.4,1505.3,323.7,-0.8,1.8,2470.339,13.31,0.013,26.6
2020-02-18T01:10:03,42.805,6.029,0.048,-0.002,-0.015,104.0,113.0,101.0,13.3,1505.3,326.6,-0.7,1.8,2470.328,13.31,0.048,92.4
2020-02-18T01:13:03,42.805,6.029,0.041,0.014,-0.017,103.0,118.0,100.0,13.3,1505.3,324.6,-0.7,1.9,2470.324,13.32,0.043,71.1
2020-02-18T01:16:03,42.805,6.029,0.054,0.009,-0.027,103.0,114.0,101.0,13.3,1505.3,327.5,-0.7,1.8,2470.331,13.32,0.054,80.5
2020-02-18T01:19:03,42.805,6.029,0.023,-0.004,-0.015,104.0,113.0,100.0,13.3,1505.3,326.1,-0.7,1.8,2470.309,13.32,0.023,99.9
2020-02-18T01:22:03,42.805,6.029,0.027,0.025,-0.03,104.0,113.0,100.0,13.4,1505.3,326.9,-0.7,1.8,2470.314,13.32,0.036,47.2
2020-02-18T01:25:03,42.805,6.029,0.052,0.002,-0.041,104.0,111.0,101.0,13.4,1505.3,326.4,-0.7,1.8,2470.338,13.32,0.052,87.8
2020-02-18T01:28:03,42.805,6.029,0.043,0.012,-0.061,104.0,113.0,101.0,13.4,1505.3,325.0,-0.7,1.8,2470.336,13.32,0.044,74.4
2020-02-18T01:31:03,42.805,6.029,0.056,0.009,-0.02,101.0,112.0,100.0,13.3,1505.3,325.8,-0.7,1.8,2470.339,13.32,0.056,80.9
2020-02-18T01:34:03,42.805,6.029,0.026,0.02,-0.037,104.0,111.0,100.0,13.4,1505.3,328.3,-0.7,1.8,2470.339,13.32,0.032,52.4
2020-02-18T01:37:03,42.805,6.029,0.016,0.01,-0.039,104.0,112.0,101.0,13.4,1505.3,326.7,-0.7,1.8,2470.264,13.32,0.018,58.0
2020-02-18T01:40:03,42.805,6.029,0.053,0.021,-0.047,103.0,113.0,101.0,13.3,1505.3,327.9,-0.7,1.9,2470.332,13.32,0.057,68.4
2020-02-18T01:43:03,42.805,6.029,0.053,0.024,-0.015,104.0,113.0,101.0,13.4,1505.3,324.3,-0.7,1.9,2470.325,13.32,0.058,65.6
2020-02-18T01:46:03,42.805,6.029,0.017,0.008,-0.024,104.0,113.0,101.0,13.4,1505.3,325.5,-0.7,1.8,2470.328,13.32,0.018,64.8
2020-02-18T01:49:03,42.805,6.029,0.021,0.019,-0.019,104.0,113.0,101.0,13.3,1505.3,328.1,-0.7,1.8,2470.322,13.32,0.028,47.9
2020-02-18T01:52:03,42.805,6.029,0.021,0.022,-0.022,105.0,113.0,100.0,13.3,1505.3,324.3,-0.7,1.9,2470.336,13.32,0.03,43.7
2020-02-18T01:55:03,42.805,6.029,0.03,0.015,-0.014,104.0,112.0,101.0,13.4,1505.3,323.2,-0.7,1.9,2470.297,13.32,0.033,63.4
2020-02-18T01:58:03,42.805,6.029,0.031,0.009,-0.051,103.0,115.0,100.0,13.3,1505.3,325.2,-0.7,1.8,2470.334,13.32,0.032,73.8
2020-02-18T02:04:03,42.805,6.029,0.024,-0.008,-0.041,104.0,114.0,101.0,13.4,1505.2,324.1,-0.7,1.8,2470.348,13.3,0.025,108.4
2020-02-18T02:07:03,42.805,6.029,0.027,-0.012,-0.02,103.0,112.0,101.0,13.4,1505.3,327.9,-0.7,1.8,2470.311,13.31,0.029,114.0
2020-02-18T02:10:03,42.805,6.029,0.033,-0.003,-0.009,104.0,114.0,101.0,13.4,1505.3,327.6,-0.7,1.8,2470.365,13.31,0.033,95.2
2020-02-18T02:13:03,42.805,6.029,0.013,0.0,-0.057,103.0,112.0,101.0,13.4,1505.3,326.3,-0.7,1.8,2470.307,13.32,0.013,90.0
2020-02-18T02:16:03,42.805,6.029,0.009,0.001,-0.048,104.0,110.0,102.0,13.4,1505.3,326.3,-0.7,1.8,2470.318,13.32,0.009,83.7
2020-02-18T02:19:03,42.805,6.029,0.039,0.026,-0.031,104.0,112.0,102.0,13.4,1505.3,325.7,-0.7,1.8,2470.328,13.32,0.046,56.3
2020-02-18T02:22:03,42.805,6.029,0.02,0.004,-0.038,103.0,113.0,101.0,13.4,1505.3,323.0,-0.7,1.8,2470.334,13.32,0.02,78.7
2020-02-18T02:28:03,42.805,6.029,0.04,-0.005,-0.028,104.0,113.0,101.0,13.4,1505.2,328.3,-0.7,1.8,2470.354,13.3,0.04,97.1
2020-02-18T02:31:03,42.805,6.029,0.026,0.015,-0.035,104.0,115.0,100.0,13.4,1505.3,325.7,-0.7,1.8,2470.36,13.31,0.03,60.0
2020-02-18T02:34:03,42.805,6.029,0.032,0.002,-0.008,103.0,112.0,102.0,13.4,1505.3,325.5,-0.7,1.8,2470.372,13.31,0.032,86.4
2020-02-18T02:37:03,42.805,6.029,0.034,0.011,-0.012,104.0,109.0,100.0,13.4,1505.3,323.9,-0.7,1.8,2470.348,13.32,0.035,72.1
2020-02-18T02:40:03,42.805,6.029,0.034,0.017,-0.004,103.0,109.0,101.0,13.3,1505.3,323.6,-0.7,1.8,2470.364,13.32,0.038,63.4
2020-02-18T02:43:03,42.805,6.029,0.024,0.01,-0.048,104.0,112.0,101.0,13.3,1505.3,326.4,-0.7,1.8,2470.36,13.32,0.026,67.4
2020-02-18T02:46:03,42.805,6.029,0.036,0.003,-0.065,103.0,110.0,103.0,13.4,1505.3,326.0,-0.7,1.9,2470.376,13.32,0.036,85.2
2020-02-18T02:49:03,42.805,6.029,0.027,0.021,-0.022,104.0,111.0,101.0,13.4,1505.3,326.1,-0.7,1.8,2470.367,13.32,0.034,52.1
2020-02-18T02:52:03,42.805,6.029,0.042,0.0,0.01,104.0,111.0,103.0,13.4,1505.3,325.2,-0.7,1.8,2470.336,13.32,0.042,90.0
2020-02-18T02:55:03,42.805,6.029,0.015,0.009,-0.022,104.0,110.0,101.0,13.4,1505.3,325.6,-0.7,1.8,2470.375,13.32,0.017,59.0
2020-02-18T02:58:03,42.805,6.029,0.026,0.011,-0.033,103.0,110.0,101.0,13.3,1505.3,327.8,-0.7,1.8,2470.384,13.32,0.028,67.1
2020-02-18T03:04:03,42.805,6.029,0.044,0.012,-0.025,105.0,110.0,100.0,13.3,1505.2,325.1,-0.8,1.9,2470.366,13.3,0.045,74.7
2020-02-18T03:07:03,42.805,6.029,0.024,0.004,-0.041,104.0,114.0,101.0,13.3,1505.3,323.5,-0.8,1.8,2470.354,13.31,0.024,80.5
2020-02-18T03:10:03,42.805,6.029,0.033,0.009,-0.045,104.0,110.0,101.0,13.4,1505.3,328.3,-0.7,1.8,2470.334,13.31,0.034,74.7
2020-02-18T03:13:03,42.805,6.029,0.043,0.008,-0.039,103.0,114.0,101.0,13.4,1505.3,326.6,-0.7,1.8,2470.393,13.32,0.043,79.5
2020-02-18T03:16:03,42.805,6.029,0.043,0.023,-0.024,104.0,114.0,101.0,13.4,1505.3,323.5,-0.7,1.8,2470.339,13.32,0.048,61.9
2020-02-18T03:19:03,42.805,6.029,0.043,-0.003,-0.03,105.0,112.0,100.0,13.4,1505.3,326.4,-0.7,1.8,2470.342,13.32,0.043,94.0
2020-02-18T03:22:03,42.805,6.029,0.044,-0.006,-0.061,104.0,108.0,101.0,13.4,1505.3,326.3,-0.7,1.8,2470.332,13.32,0.044,97.8
2020-02-18T03:25:03,42.805,6.029,0.03,-0.001,-0.009,105.0,113.0,101.0,13.3,1505.3,327.1,-0.7,1.9,2470.394,13.32,0.03,91.9
2020-02-18T03:28:03,42.805,6.029,0.033,0.012,0.009,103.0,110.0,101.0,13.4,1505.3,324.3,-0.7,1.8,2470.348,13.32,0.035,70.0
2020-02-18T03:31:03,42.805,6.029,-0.002,0.016,0.009,104.0,110.0,101.0,13.4,1505.3,323.8,-0.7,1.9,2470.373,13.32,0.016,352.9
2020-02-18T03:34:03,42.805,6.029,0.022,0.008,-0.057,105.0,111.0,101.0,13.3,1505.3,324.3,-0.7,1.8,2470.394,13.32,0.023,70.0
2020-02-18T03:37:03,42.805,6.029,0.026,-0.005,-0.051,103.0,110.0,101.0,13.4,1505.3,325.8,-0.7,1.8,2470.375,13.32,0.026,100.9
2020-02-18T03:40:03,42.805,6.029,0.047,-0.003,-0.004,104.0,111.0,100.0,13.4,1505.3,325.5,-0.7,1.8,2470.363,13.32,0.047,93.6
2020-02-18T03:43:03,42.805,6.029,0.03,0.026,-0.028,104.0,112.0,101.0,13.4,1505.3,324.8,-0.7,1.8,2470.375,13.32,0.039,49.1
2020-02-18T03:46:03,42.805,6.029,0.031,0.005,-0.015,103.0,110.0,102.0,13.4,1505.3,325.2,-0.7,1.8,2470.365,13.32,0.031,80.8
2020-02-18T03:49:03,42.805,6.029,0.041,0.011,-0.023,103.0,112.0,101.0,13.3,1505.3,324.8,-0.7,1.8,2470.353,13.32,0.042,75.0
2020-02-18T03:52:03,42.805,6.029,0.013,0.019,-0.026,103.0,110.0,101.0,13.4,1505.3,326.4,-0.7,1.8,2470.318,13.32,0.023,34.4
2020-02-18T03:55:03,42.805,6.029,0.035,0.008,-0.021,103.0,110.0,101.0,13.4,1505.3,325.0,-0.7,1.8,2470.344,13.32,0.035,77.1
2020-02-18T03:58:03,42.805,6.029,0.068,0.004,-0.005,104.0,109.0,101.0,13.4,1505.3,326.7,-0.7,1.8,2470.363,13.32,0.068,86.6
2020-02-18T04:04:03,42.805,6.029,0.025,0.011,-0.003,102.0,109.0,101.0,13.4,1505.2,325.9,-0.7,1.8,2470.414,13.3,0.027,66.3
2020-02-18T04:07:03,42.805,6.029,0.021,0.0,-0.045,103.0,112.0,101.0,13.3,1505.3,327.1,-0.7,1.8,2470.355,13.31,0.021,90.0
2020-02-18T04:10:03,42.805,6.029,0.021,0.0,-0.052,102.0,110.0,102.0,13.4,1505.3,326.8,-0.7,1.8,2470.392,13.32,0.021,90.0
2020-02-18T04:13:03,42.805,6.029,0.03,0.027,0.03,103.0,110.0,99.0,13.4,1505.3,326.9,-0.7,1.8,2470.411,13.32,0.04,48.0
2020-02-18T04:16:03,42.805,6.029,0.015,0.016,-0.03,103.0,110.0,101.0,13.3,1505.3,324.5,-0.7,1.8,2470.368,13.32,0.021,43.1
2020-02-18T04:19:03,42.805,6.029,0.034,0.01,-0.03,103.0,110.0,100.0,13.4,1505.3,325.2,-0.7,1.8,2470.376,13.32,0.035,73.6
2020-02-18T04:22:03,42.805,6.029,0.038,-0.016,-0.041,104.0,109.0,101.0,13.4,1505.3,326.3,-0.7,1.8,2470.362,13.32,0.041,112.8
2020-02-18T04:25:03,42.805,6.029,0.037,0.0,-0.026,103.0,110.0,100.0,13.4,1505.3,325.4,-0.7,1.8,2470.386,13.32,0.037,90.0
2020-02-18T04:28:03,42.805,6.029,0.025,0.005,-0.015,104.0,110.0,100.0,13.4,1505.3,325.9,-0.7,1.8,2470.344,13.32,0.025,78.7
2020-02-18T04:31:03,42.805,6.029,0.009,0.021,0.001,103.0,108.0,100.0,13.4,1505.3,323.8,-0.7,1.8,2470.354,13.32,0.022,23.2
2020-02-18T04:34:03,42.805,6.029,0.039,0.006,-0.04,104.0,110.0,100.0,13.4,1505.3,324.6,-0.7,1.9,2470.35,13.32,0.039,81.3
2020-02-18T04:37:03,42.805,6.029,0.02,0.005,-0.024,104.0,111.0,100.0,13.4,1505.3,326.8,-0.7,1.7,2470.373,13.32,0.02,76.0
2020-02-18T04:40:03,42.805,6.029,0.024,0.016,-0.058,104.0,111.0,101.0,13.4,1505.3,325.6,-0.7,1.8,2470.361,13.32,0.028,56.3
2020-02-18T04:43:03,42.805,6.029,0.02,0.025,-0.031,103.0,111.0,100.0,13.3,1505.3,325.7,-0.7,1.8,2470.387,13.32,0.032,38.7
2020-02-18T04:46:03,42.805,6.029,0.039,0.006,-0.007,103.0,109.0,101.0,13.4,1505.3,323.5,-0.8,1.8,2470.322,13.32,0.039,81.3
2020-02-18T04:49:03,42.805,6.029,0.021,0.019,-0.029,103.0,112.0,100.0,13.4,1505.3,323.4,-0.7,1.8,2470.363,13.32,0.028,47.9
2020-02-18T04:52:03,42.805,6.029,0.024,0.008,-0.021,104.0,109.0,101.0,13.4,1505.3,327.8,-0.7,1.8,2470.356,13.32,0.025,71.6
2020-02-18T04:55:03,42.805,6.029,0.033,0.008,-0.012,104.0,110.0,102.0,13.4,1505.3,324.6,-0.7,1.9,2470.37,13.32,0.033,76.4
2020-02-18T04:58:03,42.805,6.029,-0.006,0.0,-0.024,105.0,110.0,101.0,13.3,1505.3,326.5,-0.7,1.8,2470.347,13.32,0.006,270.0
2020-02-18T05:04:03,42.805,6.029,0.032,0.018,-0.034,104.0,109.0,101.0,13.4,1505.3,325.0,-0.7,1.8,2470.393,13.31,0.036,60.6
2020-02-18T05:07:03,42.805,6.029,0.042,0.006,-0.026,103.0,111.0,101.0,13.4,1505.3,328.4,-0.7,1.8,2470.371,13.31,0.042,81.9
2020-02-18T05:10:03,42.805,6.029,0.022,0.015,-0.043,104.0,111.0,100.0,13.4,1505.3,327.0,-0.7,1.8,2470.348,13.32,0.026,55.7
2020-02-18T05:13:03,42.805,6.029,0.01,0.022,-0.038,103.0,111.0,101.0,13.4,1505.3,324.7,-0.7,1.8,2470.405,13.32,0.024,24.4
2020-02-18T05:16:03,42.805,6.029,0.012,0.008,-0.039,104.0,109.0,100.0,13.3,1505.3,326.4,-0.7,1.8,2470.371,13.32,0.014,56.3
2020-02-18T05:19:03,42.805,6.029,0.022,0.001,-0.023,104.0,109.0,100.0,13.4,1505.3,325.9,-0.7,1.8,2470.391,13.32,0.022,87.4
2020-02-18T05:22:03,42.805,6.029,0.03,0.018,-0.041,104.0,109.0,100.0,13.3,1505.3,326.4,-0.7,1.8,2470.358,13.32,0.034,59.0
2020-02-18T05:25:03,42.805,6.029,0.029,0.023,-0.044,102.0,109.0,101.0,13.4,1505.3,324.4,-0.7,1.8,2470.351,13.32,0.037,51.6
2020-02-18T05:28:03,42.805,6.029,0.031,0.002,-0.024,104.0,110.0,100.0,13.4,1505.3,323.2,-0.7,1.8,2470.38,13.32,0.031,86.3
2020-02-18T05:31:03,42.805,6.029,0.027,0.016,-0.027,104.0,110.0,100.0,13.4,1505.3,327.0,-0.7,1.8,2470.351,13.32,0.031,59.3
2020-02-18T05:34:03,42.805,6.029,0.02,0.019,-0.012,103.0,110.0,100.0,13.4,1505.3,328.8,-0.7,1.8,2470.339,13.32,0.027,46.5
2020-02-18T05:37:03,42.805,6.029,0.046,0.002,-0.022,103.0,109.0,101.0,13.3,1505.3,325.0,-0.7,1.8,2470.335,13.32,0.046,87.5
2020-02-18T05:40:03,42.805,6.029,0.04,-0.005,-0.052,105.0,109.0,101.0,13.4,1505.3,326.0,-0.7,1.8,2470.371,13.32,0.04,97.1
2020-02-18T05:43:03,42.805,6.029,0.02,-0.001,-0.042,103.0,110.0,101.0,13.4,1505.3,326.2,-0.7,1.9,2470.361,13.32,0.02,92.9
2020-02-18T05:46:03,42.805,6.029,0.033,0.008,-0.042,104.0,109.0,100.0,13.3,1505.3,325.5,-0.7,1.8,2470.35,13.32,0.033,76.4
2020-02-18T05:49:03,42.805,6.029,0.007,0.012,-0.058,103.0,110.0,101.0,13.4,1505.3,326.5,-0.7,1.8,2470.348,13.32,0.013,30.3
2020-02-18T05:52:03,42.805,6.029,0.046,0.0,-0.006,103.0,110.0,101.0,13.4,1505.3,326.6,-0.7,1.9,2470.334,13.32,0.046,90.0
2020-02-18T05:55:03,42.805,6.029,0.036,0.03,-0.024,103.0,110.0,101.0,13.4,1505.3,323.9,-0.7,1.8,2470.335,13.32,0.046,50.2
2020-02-18T05:58:03,42.805,6.029,0.007,0.02,-0.035,104.0,111.0,101.0,13.4,1505.3,327.0,-0.7,1.9,2470.354,13.33,0.021,19.3
2020-02-18T06:04:03,42.805,6.029,0.034,0.015,-0.036,104.0,110.0,101.0,13.3,1505.3,323.5,-0.7,1.8,2470.368,13.31,0.037,66.2
2020-02-18T06:07:03,42.805,6.029,0.035,0.0,-0.021,104.0,110.0,101.0,13.4,1505.3,327.2,-0.8,1.8,2470.337,13.31,0.035,90.0
2020-02-18T06:10:03,42.805,6.029,0.002,-0.005,-0.04,103.0,110.0,101.0,13.3,1505.3,326.1,-0.7,1.8,2470.357,13.32,0.005,158.2
2020-02-18T06:13:03,42.805,6.029,0.018,0.025,-0.011,104.0,110.0,101.0,13.3,1505.3,325.3,-0.7,1.8,2470.36,13.32,0.03,35.8
2020-02-18T06:16:03,42.805,6.029,0.028,0.016,-0.022,103.0,110.0,101.0,13.4,1505.3,324.3,-0.7,1.8,2470.36,13.32,0.032,60.3
2020-02-18T06:19:03,42.805,6.029,0.007,0.014,-0.053,104.0,109.0,101.0,13.3,1505.3,326.2,-0.7,1.9,2470.342,13.32,0.015,26.6
2020-02-18T06:22:03,42.805,6.029,0.016,0.006,-0.05,103.0,109.0,101.0,13.4,1505.3,325.1,-0.7,1.8,2470.305,13.32,0.017,69.4
2020-02-18T06:25:03,42.805,6.029,0.002,0.012,-0.028,103.0,110.0,100.0,13.3,1505.3,326.4,-0.7,1.9,2470.365,13.32,0.012,9.5
2020-02-18T06:28:03,42.805,6.029,0.06,0.012,-0.019,103.0,108.0,101.0,13.4,1505.3,323.0,-0.7,1.9,2470.37,13.32,0.061,78.7
2020-02-18T06:31:03,42.805,6.029,0.006,0.01,-0.035,103.0,109.0,100.0,13.4,1505.3,326.8,-0.7,1.9,2470.349,13.32,0.011,31.0
2020-02-18T06:34:03,42.805,6.029,0.015,0.007,-0.035,103.0,110.0,101.0,13.4,1505.3,325.1,-0.7,1.8,2470.318,13.32,0.016,65.0
2020-02-18T06:37:03,42.805,6.029,0.0,0.024,-0.034,104.0,111.0,100.0,13.3,1505.3,327.1,-0.7,1.9,2470.351,13.32,0.024,0.0
2020-02-18T06:40:03,42.805,6.029,0.035,0.006,-0.023,104.0,107.0,101.0,13.4,1505.3,326.7,-0.7,1.8,2470.344,13.32,0.035,80.3
2020-02-18T06:43:03,42.805,6.029,0.01,-0.008,-0.036,104.0,109.0,101.0,13.4,1505.3,324.9,-0.7,1.8,2470.308,13.32,0.012,128.7
2020-02-18T06:46:03,42.805,6.029,0.032,0.024,-0.045,103.0,110.0,100.0,13.3,1505.3,326.9,-0.7,1.8,2470.322,13.32,0.04,53.1
2020-02-18T06:49:03,42.805,6.029,0.055,0.023,-0.02,103.0,109.0,101.0,13.4,1505.3,323.7,-0.7,1.8,2470.348,13.32,0.059,67.3
2020-02-18T06:52:03,42.805,6.029,0.036,0.003,-0.025,104.0,109.0,101.0,13.3,1505.3,326.8,-0.7,1.8,2470.359,13.32,0.036,85.2
2020-02-18T06:55:03,42.805,6.029,0.029,0.018,-0.02,104.0,109.0,100.0,13.3,1505.3,325.5,-0.7,1.9,2470.345,13.32,0.034,58.2
2020-02-18T06:58:03,42.805,6.029,0.011,0.012,-0.008,103.0,110.0,101.0,13.4,1505.3,323.8,-0.7,1.8,2470.342,13.32,0.016,42.5
2020-02-18T07:04:03,42.805,6.029,0.041,0.024,-0.031,102.0,110.0,101.0,13.4,1505.2,325.3,-0.7,1.8,2470.352,13.3,0.047,59.7
2020-02-18T07:07:03,42.805,6.029,0.011,0.021,-0.037,104.0,110.0,101.0,13.4,1505.3,326.0,-0.7,1.8,2470.333,13.31,0.023,27.6
2020-02-18T07:10:03,42.805,6.029,0.021,0.018,-0.011,104.0,110.0,101.0,13.3,1505.3,323.1,-0.7,1.8,2470.343,13.32,0.027,49.4
2020-02-18T07:13:03,42.805,6.029,0.052,0.012,-0.026,103.0,108.0,100.0,13.4,1505.3,328.5,-0.7,1.8,2470.358,13.32,0.053,77.0
2020-02-18T07:16:03,42.805,6.029,0.016,0.019,-0.026,104.0,109.0,100.0,13.3,1505.3,324.5,-0.7,1.8,2470.314,13.32,0.024,40.1
2020-02-18T07:19:03,42.805,6.029,0.036,0.012,-0.006,103.0,110.0,102.0,13.3,1505.3,324.6,-0.7,1.8,2470.308,13.32,0.037,71.6
2020-02-18T07:22:03,42.805,6.029,0.007,0.005,-0.061,104.0,111.0,100.0,13.4,1505.3,324.2,-0.7,1.8,2470.343,13.32,0.008,54.5
2020-02-18T07:25:03,42.805,6.029,0.032,0.007,-0.044,103.0,110.0,101.0,13.4,1505.3,324.4,-0.7,1.8,2470.32,13.32,0.032,77.7
2020-02-18T07:28:03,42.805,6.029,0.0,0.023,-0.025,104.0,108.0,101.0,13.4,1505.3,326.6,-0.7,1.8,2470.301,13.32,0.023,0.0
2020-02-18T07:31:03,42.805,6.029,0.019,0.028,-0.043,103.0,109.0,100.0,13.4,1505.3,323.2,-0.7,1.8,2470.358,13.33,0.033,34.2
2020-02-18T07:34:03,42.805,6.029,0.023,0.005,-0.024,103.0,109.0,100.0,13.3,1505.3,328.6,-0.7,1.8,2470.287,13.33,0.023,77.7
2020-02-18T07:37:03,42.805,6.029,0.02,0.019,-0.032,103.0,109.0,101.0,13.3,1505.3,324.8,-0.7,1.9,2470.28,13.33,0.027,46.5
2020-02-18T07:40:03,42.805,6.029,0.007,0.034,-0.046,104.0,116.0,101.0,13.4,1505.3,323.9,-0.7,1.9,2470.32,13.33,0.034,11.6
2020-02-18T07:43:03,42.805,6.029,0.034,0.025,-0.008,104.0,110.0,102.0,13.4,1505.3,326.9,-0.7,1.9,2470.299,13.32,0.042,53.7
2020-02-18T07:46:03,42.805,6.029,0.012,0.014,-0.044,104.0,108.0,100.0,13.3,1505.3,325.2,-0.7,1.9,2470.266,13.33,0.018,40.6
2020-02-18T07:49:03,42.805,6.029,0.045,0.0,-0.009,105.0,108.0,100.0,13.4,1505.3,325.5,-0.7,1.8,2470.244,13.33,0.045,90.0
2020-02-18T07:52:03,42.805,6.029,0.042,0.028,-0.009,104.0,113.0,102.0,13.4,1505.3,323.2,-0.7,1.8,2470.277,13.33,0.05,56.3
2020-02-18T07:55:03,42.805,6.029,0.032,0.016,-0.001,104.0,111.0,101.0,13.4,1505.3,328.6,-0.7,1.8,2470.282,13.33,0.035,63.4
2020-02-18T07:58:03,42.805,6.029,0.008,0.026,-0.037,103.0,110.0,101.0,13.4,1505.3,325.3,-0.7,1.8,2470.295,13.33,0.027,17.1
2020-02-18T08:04:03,42.805,6.029,0.03,0.023,0.007,103.0,111.0,101.0,13.4,1505.3,323.2,-0.7,1.8,2470.331,13.31,0.037,52.5
2020-02-18T08:10:03,42.805,6.029,0.025,0.031,-0.033,105.0,110.0,101.0,13.4,1505.2,324.6,-0.7,1.8,2470.337,13.3,0.039,38.9
2020-02-18T08:13:03,42.805,6.029,0.034,0.023,-0.035,104.0,112.0,100.0,13.4,1505.3,324.1,-0.8,1.8,2470.28,13.31,0.041,55.9
2020-02-18T08:16:03,42.805,6.029,-0.005,0.02,-0.061,103.0,110.0,102.0,13.4,1505.3,324.0,-0.7,1.8,2470.327,13.31,0.02,346.0
2020-02-18T08:19:03,42.805,6.029,0.019,0.008,-0.054,103.0,109.0,101.0,13.4,1505.3,324.6,-0.7,1.8,2470.305,13.32,0.02,67.2
2020-02-18T08:22:03,42.805,6.029,0.031,0.015,-0.014,103.0,109.0,101.0,13.3,1505.3,328.0,-0.7,1.8,2470.309,13.32,0.034,64.2
2020-02-18T08:25:03,42.805,6.029,0.011,0.006,-0.018,104.0,109.0,101.0,13.4,1505.3,326.5,-0.8,1.8,2470.31,13.32,0.012,61.4
2020-02-18T08:28:03,42.805,6.029,0.002,0.024,-0.027,103.0,110.0,100.0,13.4,1505.3,325.8,-0.7,1.8,2470.306,13.32,0.024,4.8
2020-02-18T08:31:03,42.805,6.029,0.006,0.004,-0.035,104.0,109.0,100.0,13.4,1505.3,325.7,-0.7,1.8,2470.255,13.32,0.007,56.3
2020-02-18T08:34:03,42.805,6.029,0.011,0.03,-0.012,104.0,111.0,101.0,13.4,1505.3,324.8,-0.7,1.9,2470.28,13.32,0.031,20.1
2020-02-18T08:37:03,42.805,6.029,0.031,0.023,-0.02,104.0,110.0,101.0,13.4,1505.3,326.3,-0.7,1.8,2470.263,13.32,0.038,53.4
2020-02-18T08:40:03,42.805,6.029,0.036,0.033,0.0,103.0,110.0,101.0,13.4,1505.3,325.5,-0.7,1.8,2470.325,13.32,0.048,47.5
2020-02-18T08:43:03,42.805,6.029,0.018,0.01,-0.041,104.0,110.0,101.0,13.3,1505.3,325.3,-0.7,1.8,2470.301,13.33,0.02,60.9
2020-02-18T08:46:03,42.805,6.029,0.013,0.015,-0.032,103.0,110.0,101.0,13.3,1505.3,325.6,-0.7,1.8,2470.269,13.33,0.019,40.9
2020-02-18T08:49:03,42.805,6.029,0.008,0.009,-0.047,102.0,112.0,101.0,13.4,1505.3,326.5,-0.7,1.9,2470.305,13.32,0.012,41.6
2020-02-18T08:52:03,42.805,6.029,0.024,0.043,-0.023,103.0,110.0,101.0,13.4,1505.3,324.8,-0.7,1.8,2470.289,13.32,0.049,29.2
2020-02-18T08:55:03,42.805,6.029,0.011,0.028,-0.016,103.0,111.0,101.0,13.4,1505.3,325.4,-0.7,1.8,2470.298,13.32,0.03,21.4
2020-02-18T08:58:03,42.805,6.029,0.022,0.015,-0.043,104.0,109.0,101.0,13.4,1505.3,324.5,-0.7,1.8,2470.257,13.33,0.026,55.7
2020-02-18T09:04:03,42.805,6.029,-0.016,-0.008,-0.054,104.0,111.0,100.0,13.3,1505.3,322.7,-0.7,1.8,2470.321,13.31,0.017,243.4
2020-02-18T09:07:03,42.805,6.029,0.035,0.021,-0.022,103.0,110.0,102.0,13.4,1505.3,327.1,-0.7,1.9,2470.299,13.31,0.04,59.0
2020-02-18T09:10:03,42.805,6.029,0.006,0.016,-0.036,103.0,110.0,101.0,13.4,1505.3,324.7,-0.7,1.8,2470.282,13.32,0.017,20.6
2020-02-18T09:13:03,42.805,6.029,0.017,0.017,-0.005,103.0,111.0,101.0,13.4,1505.3,326.9,-0.7,1.8,2470.302,13.32,0.024,45.0
2020-02-18T09:16:03,42.805,6.029,0.008,0.025,-0.005,104.0,111.0,101.0,13.3,1505.3,323.7,-0.7,1.8,2470.275,13.32,0.026,17.7
2020-02-18T09:19:03,42.805,6.029,-0.002,0.023,-0.043,105.0,111.0,101.0,13.3,1505.3,325.9,-0.7,1.8,2470.293,13.32,0.023,355.0
2020-02-18T09:22:03,42.805,6.029,0.005,0.028,-0.039,104.0,110.0,101.0,13.4,1505.3,324.8,-0.7,1.8,2470.315,13.32,0.028,10.1
2020-02-18T09:25:03,42.805,6.029,0.016,0.013,-0.041,104.0,110.0,101.0,13.4,1505.3,328.5,-0.7,1.8,2470.256,13.32,0.02,50.9
2020-02-18T09:28:03,42.805,6.029,0.031,0.026,-0.045,103.0,112.0,101.0,13.3,1505.3,324.7,-0.7,1.8,2470.266,13.32,0.04,50.0
2020-02-18T09:31:03,42.805,6.029,0.016,0.014,-0.045,103.0,110.0,101.0,13.4,1505.3,324.2,-0.7,1.8,2470.299,13.32,0.021,48.8
2020-02-18T09:34:03,42.805,6.029,0.01,0.027,-0.012,104.0,110.0,101.0,13.4,1505.3,325.6,-0.7,1.8,2470.274,13.33,0.028,20.3
2020-02-18T09:37:03,42.805,6.029,0.01,0.021,-0.03,105.0,110.0,100.0,13.4,1505.3,323.1,-0.7,1.8,2470.283,13.33,0.023,25.5
2020-02-18T09:40:03,42.805,6.029,0.018,0.028,-0.019,103.0,110.0,101.0,13.4,1505.3,326.7,-0.7,1.8,2470.24,13.33,0.033,32.7
2020-02-18T09:43:03,42.805,6.029,0.004,0.026,-0.023,103.0,111.0,101.0,13.4,1505.3,323.0,-0.7,1.8,2470.269,13.33,0.026,8.7
2020-02-18T09:46:03,42.805,6.029,0.0,0.007,-0.02,102.0,111.0,102.0,13.4,1505.3,324.4,-0.7,1.8,2470.269,13.33,0.007,0.0
2020-02-18T09:49:03,42.805,6.029,0.0,0.024,-0.055,103.0,111.0,101.0,13.4,1505.3,323.8,-0.7,1.9,2470.287,13.32,0.024,0.0
2020-02-18T09:52:03,42.805,6.029,0.007,0.013,-0.043,103.0,112.0,100.0,13.4,1505.3,326.7,-0.7,1.9,2470.306,13.32,0.014,28.3
2020-02-18T09:55:03,42.805,6.029,-0.012,0.017,-0.051,103.0,111.0,101.0,13.4,1505.3,327.6,-0.7,1.8,2470.275,13.32,0.02,324.8
2020-02-18T09:58:03,42.805,6.029,0.011,0.019,-0.005,104.0,113.0,100.0,13.4,1505.3,323.9,-0.7,1.8,2470.254,13.32,0.021,30.1
2020-02-18T10:04:03,42.805,6.029,-0.005,0.039,-0.051,103.0,112.0,101.0,13.4,1505.3,326.9,-0.7,1.8,2470.299,13.31,0.039,352.7
2020-02-18T10:07:03,42.805,6.029,0.01,0.019,-0.045,106.0,111.0,100.0,13.4,1505.3,327.0,-0.8,1.9,2470.295,13.31,0.021,27.8
2020-02-18T10:10:03,42.805,6.029,0.006,0.039,-0.042,104.0,113.0,100.0,13.4,1505.3,328.2,-0.7,1.8,2470.31,13.32,0.039,8.7